Home > Weather > Hoyerswerda > Past weeks

Flag for Germany Past Weather in Hoyerswerda, Saxony, Germany — Yesterday and Last 2 Weeks

Now
54 °F

Fog.


Feels Like: 54 °F
Forecast: 52 / 71 °F
Wind: 1 mph from North

Location: Dresden-Klotzsche

Current Time: May 26, 2016 at 6:55:31 AM

Latest Report: May 26, 2016 at 6:20 AM


Visibility: 3 mi

Pressure: 30.01 "Hg

Humidity: 94%

Dew Point: 52 °F

Location of HoyerswerdaLocation

Past Weather in Hoyerswerda — Graph

°F

Hoyerswerda Temperature Yesterday

Maximum temperature yesterday: 59 °F (at 1:20 PM)
Minimum temperature yesterday: 52 °F (at 12:20 AM)
Average temperature yesterday: 54 °F

High & Low Weather Summary for the Past Weeks

 TemperatureHumidityPressure
High82 °F (May 22, 3:50 PM)100% (May 13, 2:50 AM)30.09 "Hg (May 13, 2:50 AM)
Low39 °F (May 15, 4:50 AM)23% (May 22, 3:50 PM)29.45 "Hg (May 13, 3:20 PM)
Average57 °F67%29.86 "Hg
* Reported May 11 5:20 AM — May 26 5:50 AM, Hoyerswerda, Weather by CustomWeather, © 2016

Note: Actual official high and low records may vary slightly from our data, if they occured in-between our weather recording intervals... More about our weather records

Advertising

Hoyerswerda Weather History for the Previous 24 Hours

Scroll right to see more
 ConditionsComfort  
Time TempWeatherWind HumidityBarometerVisibility
5:50 AM
Thu, May 26
54 °FFog.2 mph94%30.01 "Hg3 mi
5:20 AM52 °FFog.2 mph100%30.01 "Hg3 mi
4:50 AM52 °FFog.3 mph100%30.01 "Hg3 mi
4:20 AM52 °FPassing clouds.3 mph100%30.01 "Hg6 mi
3:50 AM52 °FPartly cloudy.3 mph100%29.98 "HgN/A
3:20 AM54 °FPassing clouds.2 mph94%29.98 "HgN/A
2:50 AM54 °FPassing clouds.1 mph94%29.98 "HgN/A
2:20 AM54 °FPassing clouds.3 mph94%30.01 "HgN/A
1:50 AM55 °FOvercast.3 mph88%30.01 "HgN/A
1:20 AM55 °FOvercast.2 mph88%30.01 "Hg6 mi
12:50 AM55 °FMostly cloudy.3 mph88%30.01 "Hg6 mi
12:20 AM55 °FOvercast.2 mph94%30.01 "HgN/A
11:50 PM
Wed, May 25
55 °FOvercast.2 mph94%30.01 "HgN/A
11:20 PM55 °FOvercast.2 mph94%30.01 "HgN/A
10:50 PM55 °FMostly cloudy.3 mph94%29.98 "HgN/A
10:20 PM55 °FOvercast.3 mph94%29.98 "Hg6 mi
9:50 PM55 °FOvercast.5 mph88%29.98 "Hg5 mi
9:20 PM55 °FOvercast.5 mph88%29.98 "Hg5 mi
8:50 PM55 °FOvercast.3 mph88%29.98 "Hg6 mi
8:20 PM57 °FMostly cloudy.5 mph82%29.95 "Hg6 mi
7:50 PM57 °FMostly cloudy.5 mph82%29.98 "HgN/A
7:20 PM57 °FOvercast.6 mph82%29.95 "HgN/A
6:50 PM57 °FOvercast.7 mph82%29.95 "HgN/A
6:20 PM57 °FOvercast.6 mph82%29.95 "HgN/A
5:50 PM57 °FPartly sunny.8 mph82%29.95 "HgN/A
5:20 PM57 °FPartly sunny.7 mph82%29.95 "HgN/A
4:50 PM57 °FPartly sunny.8 mph82%29.95 "HgN/A
4:20 PM57 °FPartly sunny.7 mph82%29.95 "HgN/A
3:50 PM57 °FPartly sunny.9 mph82%29.95 "HgN/A
3:20 PM57 °FPartly sunny.9 mph82%29.95 "HgN/A
2:50 PM57 °FPartly sunny.8 mph82%29.95 "HgN/A
2:20 PM57 °FPartly sunny.7 mph82%29.95 "HgN/A
1:50 PM59 °FPartly sunny.8 mph77%29.95 "HgN/A
1:20 PM59 °FPartly sunny.8 mph77%29.95 "HgN/A
12:50 PM55 °FPartly sunny.7 mph88%29.95 "HgN/A
12:20 PM55 °FPartly sunny.9 mph82%29.95 "Hg4 mi
11:50 AM55 °FPartly sunny.6 mph88%29.95 "Hg4 mi
11:20 AM55 °FBroken clouds.7 mph88%29.95 "Hg4 mi
10:50 AM54 °FBroken clouds.7 mph94%29.98 "Hg4 mi
10:20 AM52 °FFog.6 mph100%29.98 "Hg3 mi
9:50 AM52 °FDrizzle. Fog.6 mph100%29.98 "Hg2 mi
9:20 AM52 °FDrizzle. Fog.7 mph94%29.95 "Hg1 mi
8:50 AM52 °FDrizzle. Fog.7 mph94%29.95 "Hg1 mi
8:20 AM52 °FDrizzle. Fog.7 mph100%29.95 "Hg1 mi
7:50 AM52 °FDrizzle. Fog.8 mph94%29.95 "Hg1 mi
7:20 AM52 °FDrizzle. Fog.7 mph94%29.95 "Hg1 mi
6:50 AM52 °FDrizzle. Fog.6 mph94%29.95 "Hg1 mi
6:20 AM52 °FDrizzle. Fog.9 mph94%29.92 "Hg1 mi
Weather by CustomWeather, © 2016

See weather overviewHow to use our weather pages